Regional Weather Roundup
Issued by NWS

Current Version | Previous Version | Text Only | Print | Product List | Glossary On
Versions: 1 2 3 4 5 6 7 8 9 10 11 12 13 14 15 16 17 18 19 20 21 22 23 24 25 26 27 28 29 30 31 32 33 34 35 36 37 38 39 40 41 42 43 44 45 46 47 48 49 50
000
ASUS43 KLMK 291302
RWRKY
KENTUCKY REGIONAL WEATHER ROUNDUP
NATIONAL WEATHER SERVICE LOUISVILLE KY
900 AM EDT MON AUG 29 2016

NOTE "FAIR" INDICATES FEW OR NO CLOUDS BELOW 12,000 FEET
WITH NO SIGNIFICANT WEATHER AND/OR OBSTRUCTIONS TO VISIBILITY.

KYZ001>023-026-027-061>063-070>075-291400-
WESTERN AND SOUTH CENTRAL KENTUCKY

CITY           SKY/WX    TMP DP  RH WIND       PRES   REMARKS
PADUCAH        SUNNY     77  72  84 E5        30.16R
HENDERSON      SUNNY     75  66  73 E6        30.17S
OWENSBORO      SUNNY     77  70  79 NE7       30.19R
HOPKINSVILLE   SUNNY     74  69  85 E6        30.16R
BOWLING GREEN  PTSUNNY   74  69  85 NE5       30.18R
GLASGOW        SUNNY     73  72  98 NE6       30.19R
$$

KYZ024-025-028>034-038-045-046-053-291400-
NORTH CENTRAL KENTUCKY

CITY           SKY/WX    TMP DP  RH WIND       PRES   REMARKS
LOUISVILLE/SDF MOSUNNY   75  68  78 NE3       30.21R
LOUISVILLE/LOU MOSUNNY   74  68  81 CALM      30.21R
FORT KNOX      SUNNY     73  69  88 NE6       30.19R
$$

KYZ035>037-039>044-047>052-055>060-089>105-291400-
NORTHEAST KENTUCKY

CITY           SKY/WX    TMP DP  RH WIND       PRES   REMARKS
LEXINGTON      SUNNY     74  69  85 NE5       30.22R
COVINGTON      SUNNY     73  69  87 N5        30.23R
FRANKFORT      SUNNY     73  68  84 N3        30.21R
$$

KYZ054-064>069-076>088-106>120-291400-
SOUTHEAST KENTUCKY

CITY           SKY/WX    TMP DP  RH WIND       PRES   REMARKS
JACKSON        SUNNY     72  68  87 CALM      30.22S
LONDON         SUNNY     74  68  81 NE3       30.21R
SOMERSET       SUNNY     72  70  94 CALM      30.22R
MIDDLESBORO    CLOUDY    68  68 100 CALM      30.23R
MONTICELLO     MOSUNNY  N/A N/A N/A MISG      30.22R
$$




USA.gov is the U.S. government's official web portal to all federal, state and local government web resources and services.